| time (UTC) | temp C | wind direction | speed KPH | gust KPH | rain 1hr cm | rain 24hr cm | rain mn cm | humidity % | barometer mb |
| 20260505093034 | 23 | 157 | 0.0 | 0.0 | 0.00 | 0.00 | 0.00 | 91 | 1017.5 |
| 20260505092534 | 23 | 157 | 0.0 | 0.0 | 0.00 | 0.00 | 0.00 | 91 | 1017.5 |
| 20260505092033 | 23 | 157 | 0.0 | 0.0 | 0.00 | 0.00 | 0.00 | 91 | 1017.4 |
| 20260505091537 | 23 | 157 | 0.0 | 0.0 | 0.00 | 0.00 | 0.00 | 91 | 1017.5 |
| 20260505091032 | 23 | 157 | 0.0 | 0.0 | 0.00 | 0.00 | 0.00 | 91 | 1017.4 |
| 20260505090532 | 23 | 157 | 0.0 | 0.0 | 0.00 | 0.00 | 0.00 | 91 | 1017.4 |
| 20260505090034 | 23 | 157 | 0.0 | 0.0 | 0.00 | 0.00 | 0.00 | 91 | 1017.4 |
| 20260505085532 | 23 | 157 | 0.0 | 3.2 | 0.00 | 0.00 | 0.00 | 91 | 1017.3 |
| 20260505085034 | 23 | 157 | 0.0 | 3.2 | 0.00 | 0.00 | 0.00 | 91 | 1017.3 |
| 20260505084532 | 23 | 155 | 0.0 | 0.0 | 0.00 | 0.00 | 0.00 | 90 | 1017.3 |
| 20260505084030 | 23 | 155 | 0.0 | 0.0 | 0.00 | 0.00 | 0.00 | 90 | 1017.2 |
| 20260505083530 | 23 | 155 | 0.0 | 1.6 | 0.00 | 0.00 | 0.00 | 91 | 1017.2 |
| 20260505083042 | 23 | 156 | 0.0 | 3.2 | 0.00 | 0.00 | 0.00 | 91 | 1017.2 |
| 20260505082534 | 23 | 156 | 0.0 | 3.2 | 0.00 | 0.00 | 0.00 | 90 | 1017.1 |
| 20260505082030 | 23 | 156 | 0.0 | 1.6 | 0.00 | 0.00 | 0.00 | 91 | 1017.1 |
| 20260505081531 | 23 | 156 | 0.0 | 3.2 | 0.00 | 0.00 | 0.00 | 90 | 1017.1 |
| 20260505081029 | 23 | 156 | 0.0 | 3.2 | 0.00 | 0.00 | 0.00 | 90 | 1017.1 |
| 20260505080533 | 23 | 156 | 0.0 | 1.6 | 0.00 | 0.00 | 0.00 | 90 | 1017.0 |
| 20260505080042 | 23 | 156 | 0.0 | 0.0 | 0.00 | 0.00 | 0.00 | 90 | 1016.9 |
| 20260505075531 | 23 | 156 | 0.0 | 0.0 | 0.00 | 0.00 | 0.00 | 90 | 1016.9 |
| 20260505075031 | 23 | 156 | 0.0 | 0.0 | 0.00 | 0.00 | 0.00 | 90 | 1016.7 |
| 20260505074527 | 23 | 156 | 0.0 | 0.0 | 0.00 | 0.00 | 0.00 | 90 | 1016.7 |
| 20260505074030 | 23 | 156 | 0.0 | 0.0 | 0.00 | 0.00 | 0.00 | 90 | 1016.7 |
| 20260505073527 | 23 | 156 | 0.0 | 0.0 | 0.00 | 0.00 | 0.00 | 90 | 1016.7 |
| 20260505073027 | 23 | 156 | 0.0 | 0.0 | 0.00 | 0.00 | 0.00 | 90 | 1016.7 |
| 20260505072525 | 23 | 156 | 0.0 | 0.0 | 0.00 | 0.00 | 0.00 | 90 | 1016.8 |
| 20260505072027 | 23 | 156 | 0.0 | 0.0 | 0.00 | 0.00 | 0.00 | 90 | 1016.8 |
| 20260505071535 | 23 | 156 | 0.0 | 0.0 | 0.00 | 0.00 | 0.00 | 90 | 1016.9 |
| 20260505071025 | 23 | 156 | 0.0 | 1.6 | 0.00 | 0.00 | 0.00 | 90 | 1016.9 |
| 20260505070525 | 24 | 156 | 0.0 | 1.6 | 0.00 | 0.00 | 0.00 | 90 | 1016.8 |
| 20260505070028 | 23 | 156 | 0.0 | 8.0 | 0.00 | 0.00 | 0.00 | 90 | 1016.8 |
| 20260505065523 | 24 | 156 | 1.6 | 8.0 | 0.00 | 0.00 | 0.00 | 90 | 1016.9 |
| 20260505065023 | 24 | 154 | 0.0 | 0.0 | 0.00 | 0.00 | 0.00 | 90 | 1017.0 |
| 20260505064524 | 24 | 154 | 0.0 | 0.0 | 0.00 | 0.00 | 0.00 | 90 | 1016.9 |
| 20260505064023 | 24 | 154 | 0.0 | 1.6 | 0.00 | 0.00 | 0.00 | 90 | 1016.9 |
| 20260505063522 | 24 | 154 | 0.0 | 1.6 | 0.00 | 0.00 | 0.00 | 90 | 1016.8 |
| 20260505063031 | 24 | 151 | 0.0 | 3.2 | 0.00 | 0.00 | 0.00 | 90 | 1016.9 |
| 20260505062522 | 24 | 151 | 0.0 | 3.2 | 0.00 | 0.00 | 0.00 | 90 | 1017.0 |
| 20260505062030 | 24 | 150 | 0.0 | 4.8 | 0.00 | 0.00 | 0.00 | 90 | 1017.0 |
| 20260505061527 | 23 | 151 | 0.0 | 4.8 | 0.00 | 0.00 | 0.00 | 90 | 1017.1 |
| 20260505061026 | 24 | 151 | 0.0 | 4.8 | 0.00 | 0.00 | 0.00 | 90 | 1017.1 |
| 20260505060520 | 24 | 164 | 0.0 | 4.8 | 0.00 | 0.00 | 0.00 | 90 | 1017.0 |
| 20260505060020 | 24 | 71 | 0.0 | 6.4 | 0.00 | 0.00 | 0.00 | 90 | 1017.0 |
| 20260505055519 | 23 | 30 | 1.6 | 9.7 | 0.00 | 0.00 | 0.00 | 90 | 1017.1 |
| 20260505055018 | 24 | 169 | 0.0 | 9.7 | 0.00 | 0.00 | 0.00 | 90 | 1017.1 |
| 20260505054518 | 24 | 128 | 0.0 | 8.0 | 0.00 | 0.00 | 0.00 | 90 | 1017.3 |
| 20260505054017 | 24 | 184 | 0.0 | 3.2 | 0.00 | 0.00 | 0.00 | 90 | 1017.3 |
| 20260505053516 | 24 | 103 | 0.0 | 0.0 | 0.00 | 0.00 | 0.00 | 90 | 1017.3 |
| 20260505053017 | 23 | 103 | 0.0 | 0.0 | 0.00 | 0.00 | 0.00 | 90 | 1017.5 |
| 20260505052515 | 24 | 103 | 0.0 | 3.2 | 0.00 | 0.00 | 0.00 | 90 | 1017.6 |
| 20260505052015 | 24 | 104 | 0.0 | 3.2 | 0.00 | 0.00 | 0.00 | 90 | 1017.5 |
| 20260505051522 | 24 | 141 | 0.0 | 3.2 | 0.00 | 0.00 | 0.00 | 90 | 1017.6 |
| 20260505051014 | 24 | 141 | 0.0 | 3.2 | 0.00 | 0.00 | 0.00 | 90 | 1017.6 |
| 20260505050518 | 24 | 136 | 0.0 | 3.2 | 0.00 | 0.00 | 0.00 | 90 | 1017.7 |
| 20260505041509 | 24 | 127 | 0.0 | 0.0 | 0.00 | 0.00 | 0.00 | 88 | 1018.2 |
| 20260505041008 | 24 | 127 | 0.0 | 0.0 | 0.00 | 0.00 | 0.00 | 88 | 1018.3 |
| 20260505040507 | 24 | 127 | 0.0 | 0.0 | 0.00 | 0.00 | 0.00 | 88 | 1018.3 |
| 20260505040007 | 24 | 127 | 0.0 | 0.0 | 0.00 | 0.00 | 0.00 | 88 | 1018.4 |
| 20260505035505 | 24 | 127 | 0.0 | 0.0 | 0.00 | 0.00 | 0.00 | 89 | 1018.4 |
| 20260505035005 | 24 | 127 | 0.0 | 3.2 | 0.00 | 0.00 | 0.00 | 89 | 1018.6 |
| 20260505034505 | 24 | 127 | 0.0 | 3.2 | 0.00 | 0.00 | 0.00 | 89 | 1018.6 |
| 20260505034005 | 24 | 127 | 0.0 | 0.0 | 0.00 | 0.00 | 0.00 | 89 | 1018.7 |
| 20260505033505 | 24 | 127 | 0.0 | 0.0 | 0.00 | 0.00 | 0.00 | 89 | 1018.7 |
| 20260505033007 | 23 | 127 | 0.0 | 0.0 | 0.00 | 0.00 | 0.00 | 89 | 1018.8 |
| 20260505032508 | 24 | 127 | 0.0 | 0.0 | 0.00 | 0.00 | 0.00 | 89 | 1018.8 |
| 20260505032007 | 24 | 127 | 0.0 | 0.0 | 0.00 | 0.00 | 0.00 | 88 | 1018.8 |
| 20260505031516 | 24 | 127 | 0.0 | 0.0 | 0.00 | 0.00 | 0.00 | 89 | 1018.8 |
| 20260505031004 | 24 | 127 | 0.0 | 0.0 | 0.00 | 0.00 | 0.00 | 88 | 1018.6 |
| 20260505030504 | 24 | 127 | 0.0 | 0.0 | 0.00 | 0.00 | 0.00 | 88 | 1018.7 |
| 20260505030004 | 24 | 127 | 0.0 | 0.0 | 0.00 | 0.00 | 0.00 | 88 | 1018.7 |
| 20260505025509 | 24 | 127 | 0.0 | 0.0 | 0.00 | 0.00 | 0.00 | 88 | 1018.7 |
| 20260505025006 | 24 | 127 | 0.0 | 0.0 | 0.00 | 0.00 | 0.00 | 87 | 1018.6 |
| 20260505024504 | 25 | 127 | 0.0 | 3.2 | 0.00 | 0.00 | 0.00 | 87 | 1018.6 |
| 20260505024003 | 25 | 127 | 0.0 | 3.2 | 0.00 | 0.00 | 0.00 | 87 | 1018.6 |
| 20260505023503 | 25 | 127 | 0.0 | 1.6 | 0.00 | 0.00 | 0.00 | 86 | 1018.6 |
| 20260505023003 | 25 | 127 | 0.0 | 1.6 | 0.00 | 0.00 | 0.00 | 86 | 1018.4 |
| 20260505022503 | 25 | 127 | 0.0 | 1.6 | 0.00 | 0.00 | 0.00 | 86 | 1018.3 |
| 20260505022003 | 25 | 127 | 0.0 | 0.0 | 0.00 | 0.00 | 0.00 | 86 | 1018.6 |
| 20260505021503 | 25 | 127 | 0.0 | 1.6 | 0.00 | 0.00 | 0.00 | 86 | 1018.5 |
| 20260505021003 | 25 | 127 | 0.0 | 1.6 | 0.00 | 0.00 | 0.00 | 85 | 1018.4 |
| 20260505020503 | 25 | 127 | 0.0 | 3.2 | 0.00 | 0.00 | 0.00 | 85 | 1018.4 |
| 20260505020003 | 25 | 127 | 1.6 | 3.2 | 0.00 | 0.00 | 0.00 | 85 | 1018.6 |
| 20260505015502 | 25 | 127 | 0.0 | 4.8 | 0.00 | 0.00 | 0.00 | 85 | 1018.4 |
| 20260505015002 | 25 | 127 | 1.6 | 4.8 | 0.00 | 0.00 | 0.00 | 85 | 1018.6 |
| 20260505014506 | 25 | 127 | 0.0 | 3.2 | 0.00 | 0.00 | 0.00 | 85 | 1018.4 |
| 20260505014002 | 25 | 127 | 0.0 | 1.6 | 0.00 | 0.00 | 0.00 | 85 | 1018.3 |
| 20260505013503 | 25 | 127 | 0.0 | 9.7 | 0.00 | 0.00 | 0.00 | 84 | 1018.2 |
| 20260505013002 | 25 | 127 | 1.6 | 9.7 | 0.00 | 0.00 | 0.00 | 85 | 1018.2 |
| 20260505012504 | 25 | 107 | 1.6 | 9.7 | 0.00 | 0.00 | 0.00 | 84 | 1018.2 |
| 20260505012002 | 25 | 119 | 3.2 | 9.7 | 0.00 | 0.00 | 0.00 | 84 | 1018.1 |
| 20260505011500 | 25 | 119 | 3.2 | 9.7 | 0.00 | 0.00 | 0.00 | 84 | 1018.0 |
| 20260505011001 | 25 | 124 | 3.2 | 9.7 | 0.00 | 0.00 | 0.00 | 83 | 1017.9 |
| 20260505010502 | 25 | 107 | 0.0 | 9.7 | 0.00 | 0.00 | 0.00 | 84 | 1017.9 |
| 20260505010001 | 25 | 108 | 3.2 | 9.7 | 0.00 | 0.00 | 0.00 | 83 | 1017.9 |
| 20260505005601 | 25 | 121 | 0.0 | 4.8 | 0.00 | 0.00 | 0.00 | 83 | 1017.8 |
| 20260505005100 | 25 | 121 | 1.6 | 6.4 | 0.00 | 0.00 | 0.00 | 83 | 1017.8 |
| 20260505004600 | 25 | 121 | 0.0 | 3.2 | 0.00 | 0.00 | 0.00 | 83 | 1017.8 |
| 20260505004059 | 25 | 121 | 0.0 | 6.4 | 0.00 | 0.00 | 0.00 | 83 | 1017.8 |
| 20260505003559 | 25 | 121 | 1.6 | 6.4 | 0.00 | 0.00 | 0.00 | 82 | 1017.7 |
| 20260505003119 | 25 | 121 | 0.0 | 9.7 | 0.00 | 0.00 | 0.00 | 82 | 1017.6 |
| 20260505002559 | 25 | 121 | 0.0 | 9.7 | 0.00 | 0.00 | 0.00 | 82 | 1017.7 |
| 20260505002502 | 25 | 121 | 0.0 | 9.7 | 0.00 | 0.00 | 0.00 | 82 | 1017.5 |
| 20260505002059 | 25 | 121 | 3.2 | 9.7 | 0.00 | 0.00 | 0.00 | 82 | 1017.6 |
| 20260505001559 | 25 | 123 | 1.6 | 9.7 | 0.00 | 0.00 | 0.00 | 82 | 1017.7 |
| 20260505001058 | 25 | 105 | 1.6 | 3.2 | 0.00 | 0.00 | 0.00 | 82 | 1017.6 |
| 20260505000558 | 26 | 105 | 0.0 | 9.7 | 0.00 | 0.00 | 0.00 | 81 | 1017.7 |
| 20260504235558 | 26 | 108 | 0.0 | 6.4 | 0.00 | 0.00 | 0.00 | 81 | 1017.7 |
| 20260504235058 | 26 | 96 | 1.6 | 6.4 | 0.00 | 0.00 | 0.00 | 81 | 1017.6 |
| 20260504234558 | 26 | 96 | 0.0 | 1.6 | 0.00 | 0.00 | 0.00 | 80 | 1017.6 |
| 20260504234057 | 26 | 96 | 0.0 | 4.8 | 0.00 | 0.00 | 0.00 | 80 | 1017.6 |
| 20260504233600 | 26 | 96 | 1.6 | 9.7 | 0.00 | 0.00 | 0.00 | 80 | 1017.4 |
| 20260504233105 | 26 | 150 | 1.6 | 11.3 | 0.00 | 0.00 | 0.00 | 79 | 1017.5 |
| 20260504232557 | 26 | 106 | 3.2 | 11.3 | 0.00 | 0.00 | 0.00 | 79 | 1017.4 |
| 20260504232057 | 26 | 155 | 3.2 | 11.3 | 0.00 | 0.00 | 0.00 | 79 | 1017.3 |
| 20260504231557 | 26 | 155 | 1.6 | 8.0 | 0.00 | 0.00 | 0.00 | 78 | 1017.2 |
| 20260504231057 | 26 | 343 | 0.0 | 6.4 | 0.00 | 0.00 | 0.00 | 78 | 1017.2 |
| 20260504230557 | 26 | 121 | 1.6 | 9.7 | 0.00 | 0.00 | 0.00 | 78 | 1017.1 |
| 20260504230113 | 26 | 94 | 3.2 | 11.3 | 0.00 | 0.00 | 0.00 | 77 | 1017.1 |
| 20260504225555 | 26 | 98 | 3.2 | 9.7 | 0.00 | 0.00 | 0.00 | 77 | 1017.0 |
| 20260504225058 | 26 | 96 | 3.2 | 9.7 | 0.00 | 0.00 | 0.00 | 77 | 1017.0 |
| 20260504224620 | 26 | 106 | 0.0 | 9.7 | 0.00 | 0.00 | 0.00 | 77 | 1017.0 |
| 20260504224055 | 26 | 107 | 1.6 | 9.7 | 0.00 | 0.00 | 0.00 | 76 | 1016.8 |
| 20260504223555 | 26 | 84 | 0.0 | 9.7 | 0.00 | 0.00 | 0.00 | 76 | 1016.8 |
| 20260504223058 | 26 | 103 | 1.6 | 12.9 | 0.00 | 0.00 | 0.00 | 76 | 1016.8 |
| 20260504222556 | 26 | 119 | 3.2 | 12.9 | 0.00 | 0.00 | 0.00 | 76 | 1016.7 |
| 20260504222055 | 26 | 75 | 3.2 | 11.3 | 0.00 | 0.00 | 0.00 | 76 | 1016.6 |
| 20260504221555 | 26 | 112 | 4.8 | 9.7 | 0.00 | 0.00 | 0.00 | 75 | 1016.5 |
| 20260504221054 | 27 | 305 | 3.2 | 19.3 | 0.00 | 0.00 | 0.00 | 75 | 1016.7 |
| 20260504220555 | 27 | 71 | 4.8 | 19.3 | 0.00 | 0.00 | 0.00 | 75 | 1016.6 |
| 20260504220058 | 27 | 10 | 4.8 | 17.7 | 0.00 | 0.00 | 0.00 | 76 | 1016.4 |
| 20260504215554 | 27 | 126 | 4.8 | 17.7 | 0.00 | 0.00 | 0.00 | 76 | 1016.2 |
| 20260504215153 | 27 | 59 | 3.2 | 12.9 | 0.00 | 0.00 | 0.00 | 77 | 1016.2 |
| 20260504214553 | 27 | 74 | 4.8 | 12.9 | 0.00 | 0.00 | 0.00 | 77 | 1016.3 |
| 20260504214055 | 27 | 345 | 4.8 | 12.9 | 0.00 | 0.00 | 0.00 | 77 | 1016.1 |
| 20260504213553 | 27 | 251 | 3.2 | 11.3 | 0.00 | 0.00 | 0.00 | 77 | 1015.9 |
| 20260504213100 | 27 | 325 | 3.2 | 16.1 | 0.00 | 0.00 | 0.00 | 77 | 1016.0 |
| 20260504212555 | 27 | 94 | 6.4 | 16.1 | 0.00 | 0.00 | 0.00 | 76 | 1015.9 |
| 20260504212055 | 27 | 122 | 3.2 | 17.7 | 0.00 | 0.00 | 0.00 | 76 | 1015.9 |
| 20260504211558 | 27 | 85 | 4.8 | 16.1 | 0.00 | 0.00 | 0.00 | 76 | 1016.0 |
| 20260504211153 | 27 | 135 | 6.4 | 17.7 | 0.00 | 0.00 | 0.00 | 76 | 1015.8 |
| 20260504210554 | 27 | 106 | 6.4 | 17.7 | 0.00 | 0.00 | 0.00 | 76 | 1015.8 |
| 20260504210101 | 27 | 87 | 6.4 | 20.9 | 0.00 | 0.00 | 0.00 | 75 | 1015.7 |
| 20260504205551 | 28 | 95 | 8.0 | 20.9 | 0.00 | 0.00 | 0.00 | 74 | 1015.7 |
| 20260504205051 | 28 | 269 | 4.8 | 20.9 | 0.00 | 0.00 | 0.00 | 73 | 1015.7 |
| 20260504204554 | 28 | 101 | 4.8 | 20.9 | 0.00 | 0.00 | 0.00 | 72 | 1015.7 |
| 20260504204054 | 28 | 355 | 8.0 | 20.9 | 0.00 | 0.00 | 0.00 | 71 | 1015.5 |
| 20260504203551 | 28 | 13 | 4.8 | 17.7 | 0.00 | 0.00 | 0.00 | 70 | 1015.5 |
| 20260504203051 | 28 | 63 | 4.8 | 22.5 | 0.00 | 0.00 | 0.00 | 71 | 1015.3 |
| 20260504202550 | 28 | 281 | 6.4 | 22.5 | 0.00 | 0.00 | 0.00 | 70 | 1015.5 |
| 20260504202053 | 28 | 136 | 6.4 | 17.7 | 0.00 | 0.00 | 0.00 | 69 | 1015.6 |
| 20260504201550 | 28 | 329 | 6.4 | 17.7 | 0.00 | 0.00 | 0.00 | 69 | 1015.5 |
| 20260504201049 | 28 | 101 | 6.4 | 14.5 | 0.00 | 0.00 | 0.00 | 69 | 1015.5 |
| 20260504200549 | 28 | 264 | 4.8 | 20.9 | 0.00 | 0.00 | 0.00 | 69 | 1015.7 |
| 20260504200059 | 29 | 250 | 4.8 | 14.5 | 0.00 | 0.00 | 0.00 | 69 | 1015.8 |
| 20260504195548 | 29 | 28 | 4.8 | 14.5 | 0.00 | 0.00 | 0.00 | 69 | 1015.6 |
| 20260504195047 | 29 | 202 | 3.2 | 17.7 | 0.00 | 0.00 | 0.00 | 67 | 1015.6 |
| 20260504194547 | 29 | 119 | 4.8 | 17.7 | 0.00 | 0.00 | 0.00 | 67 | 1015.7 |
| 20260504194046 | 29 | 72 | 6.4 | 17.7 | 0.00 | 0.00 | 0.00 | 67 | 1015.6 |
| 20260504193546 | 29 | 118 | 4.8 | 22.5 | 0.00 | 0.00 | 0.00 | 68 | 1015.7 |
| 20260504193048 | 29 | 143 | 8.0 | 17.7 | 0.00 | 0.00 | 0.00 | 68 | 1015.7 |
| 20260504192544 | 29 | 244 | 6.4 | 17.7 | 0.00 | 0.00 | 0.00 | 67 | 1015.7 |
| 20260504192044 | 30 | 78 | 4.8 | 12.9 | 0.00 | 0.00 | 0.00 | 68 | 1015.6 |
| 20260504191552 | 29 | 329 | 1.6 | 12.9 | 0.00 | 0.00 | 0.00 | 69 | 1015.8 |
| 20260504191042 | 28 | 215 | 3.2 | 16.1 | 0.00 | 0.00 | 0.00 | 70 | 1015.9 |
| 20260504190542 | 29 | 206 | 8.0 | 19.3 | 0.00 | 0.00 | 0.00 | 68 | 1016.0 |
| 20260504190041 | 29 | 111 | 8.0 | 19.3 | 0.00 | 0.00 | 0.00 | 68 | 1016.0 |
| 20260504185538 | 28 | 34 | 8.0 | 19.3 | 0.00 | 0.00 | 0.00 | 68 | 1016.0 |
| 20260504185042 | 30 | 117 | 6.4 | 22.5 | 0.00 | 0.00 | 0.00 | 67 | 1016.0 |
| 20260504184539 | 30 | 71 | 4.8 | 22.5 | 0.00 | 0.00 | 0.00 | 68 | 1016.0 |
| 20260504184039 | 29 | 50 | 4.8 | 17.7 | 0.00 | 0.00 | 0.00 | 68 | 1016.2 |
| 20260504183534 | 28 | 66 | 6.4 | 14.5 | 0.00 | 0.00 | 0.00 | 69 | 1016.4 |
| 20260504183037 | 28 | 311 | 4.8 | 16.1 | 0.00 | 0.00 | 0.00 | 68 | 1016.3 |
| 20260504182533 | 29 | 42 | 4.8 | 16.1 | 0.00 | 0.00 | 0.00 | 67 | 1016.2 |
| 20260504182033 | 30 | 98 | 4.8 | 22.5 | 0.00 | 0.00 | 0.00 | 66 | 1016.4 |
| 20260504181533 | 30 | 167 | 11.3 | 22.5 | 0.00 | 0.00 | 0.00 | 66 | 1016.6 |
| 20260504181031 | 30 | 46 | 6.4 | 25.7 | 0.00 | 0.00 | 0.00 | 64 | 1016.3 |
| 20260504180530 | 30 | 38 | 4.8 | 19.3 | 0.00 | 0.00 | 0.00 | 64 | 1016.5 |
| 20260504180030 | 30 | 342 | 3.2 | 16.1 | 0.00 | 0.00 | 0.00 | 64 | 1016.5 |
| 20260504175528 | 31 | 140 | 3.2 | 17.7 | 0.00 | 0.00 | 0.00 | 64 | 1016.6 |
| 20260504175027 | 30 | 273 | 4.8 | 17.7 | 0.00 | 0.00 | 0.00 | 63 | 1016.6 |
| 20260504174526 | 30 | 20 | 9.7 | 25.7 | 0.00 | 0.00 | 0.00 | 63 | 1016.7 |
| 20260504174027 | 30 | 98 | 9.7 | 25.7 | 0.00 | 0.00 | 0.00 | 64 | 1016.8 |
| 20260504173528 | 30 | 126 | 6.4 | 24.1 | 0.00 | 0.00 | 0.00 | 63 | 1016.7 |
| 20260504173025 | 30 | 92 | 4.8 | 19.3 | 0.00 | 0.00 | 0.00 | 63 | 1016.9 |
| 20260504172524 | 30 | 127 | 9.7 | 19.3 | 0.00 | 0.00 | 0.00 | 62 | 1017.0 |
| 20260504172024 | 30 | 131 | 8.0 | 17.7 | 0.00 | 0.00 | 0.00 | 61 | 1017.0 |
| 20260504171524 | 30 | 198 | 6.4 | 17.7 | 0.00 | 0.00 | 0.00 | 61 | 1017.2 |
| 20260504171024 | 30 | 80 | 8.0 | 19.3 | 0.00 | 0.00 | 0.00 | 62 | 1017.3 |
| 20260504170523 | 30 | 116 | 8.0 | 19.3 | 0.00 | 0.00 | 0.00 | 62 | 1017.5 |
| 20260504151011 | 29 | 135 | 6.4 | 16.1 | 0.00 | 0.00 | 0.00 | 65 | 1018.5 |
| 20260504150512 | 29 | 175 | 6.4 | 17.7 | 0.00 | 0.00 | 0.00 | 65 | 1018.3 |
| 20260504141006 | 28 | 88 | 8.0 | 19.3 | 0.00 | 0.00 | 0.00 | 69 | 1018.2 |
| 20260504140502 | 28 | 329 | 9.7 | 25.7 | 0.00 | 0.00 | 0.00 | 69 | 1018.2 |
| 20260504130554 | 27 | 161 | 8.0 | 16.1 | 0.00 | 0.00 | 0.00 | 74 | 1018.4 |
| 20260504110529 | 24 | 184 | 0.0 | 0.0 | 0.00 | 0.00 | 0.00 | 86 | 1018.4 |
| 20260504100520 | 23 | 187 | 0.0 | 0.0 | 0.00 | 0.00 | 0.00 | 88 | 1017.9 |